Torna al catalogo

COSMOS 2582

AttivoMilitarePO
NORAD 62903·PAYLOAD·🇷🇺 Russia

Lanciato Feb 5, 2025 da Plesetsk Cosmodrome

Loading…

Prossimi Passaggi (prossime 24 ore)

TLE

AggiornatoSource: Space-Track

Epoca: Sep 14, 2026, 18:28 UTC

1 62903U 25026B   26257.77005549  .00000904  00000-0  80035-4 0  9997
2 62903  81.9990 343.0771 0011345 116.7625 243.4757 14.95175990 87596

Traccia COSMOS 2582 in tempo reale con AllMySat

Download on the App Store